| time (UTC) | temp F | wind direction | speed MPH | gust MPH | rain 1hr in | rain 24hr in | rain mn in | humidity % | barometer mb |
| 20260902124603 | 74 | 185 | 0.0 | 2.0 | 0.03 | 0.24 | 0.24 | 95 | 1018.8 |
| 20260902123100 | 74 | 185 | 1.0 | 2.0 | 0.03 | 0.23 | 0.23 | 95 | 1018.4 |
| 20260902121611 | 73 | 0 | 0.0 | 4.0 | 0.04 | 0.23 | 0.23 | 95 | 1018.4 |
| 20260902120056 | 72 | 153 | 1.0 | 3.0 | 0.04 | 0.22 | 0.22 | 95 | 1018.2 |
| 20260902114554 | 71 | 0 | 0.0 | 2.0 | 0.04 | 0.21 | 0.21 | 95 | 1018.2 |
| 20260902113053 | 71 | 0 | 0.0 | 3.0 | 0.04 | 0.20 | 0.20 | 94 | 1018.2 |
| 20260902111602 | 71 | 0 | 0.0 | 2.0 | 0.04 | 0.19 | 0.19 | 94 | 1018.0 |
| 20260902110057 | 71 | 0 | 0.0 | 3.0 | 0.05 | 0.18 | 0.18 | 94 | 1018.2 |
| 20260902104555 | 71 | 0 | 0.0 | 4.0 | 0.06 | 0.17 | 0.17 | 93 | 1018.0 |
| 20260902103048 | 71 | 0 | 1.0 | 4.0 | 0.08 | 0.16 | 0.16 | 93 | 1018.1 |
| 20260902101618 | 71 | 157 | 1.0 | 5.0 | 0.13 | 0.15 | 0.15 | 93 | 1018.2 |
| 20260902100107 | 71 | 196 | 1.0 | 5.0 | 0.13 | 0.13 | 0.13 | 93 | 1018.4 |
| 20260902094551 | 71 | 213 | 2.0 | 8.0 | 0.11 | 0.11 | 0.11 | 92 | 1018.1 |
| 20260902093048 | 72 | 32 | 3.0 | 19.0 | 0.08 | 0.08 | 0.08 | 90 | 1018.3 |
| 20260902091548 | 73 | 171 | 4.0 | 9.0 | 0.02 | 0.02 | 0.02 | 86 | 1018.6 |
| 20260902090053 | 72 | 0 | 0.0 | 2.0 | 0.00 | 0.00 | 0.00 | 87 | 1017.9 |
| 20260902084612 | 72 | 172 | 0.0 | 3.0 | 0.00 | 0.00 | 0.00 | 86 | 1017.9 |
| 20260902083057 | 72 | 0 | 1.0 | 4.0 | 0.00 | 0.00 | 0.00 | 87 | 1018.0 |
| 20260902081602 | 72 | 0 | 0.0 | 4.0 | 0.00 | 0.00 | 0.00 | 86 | 1017.9 |
| 20260902080049 | 73 | 159 | 1.0 | 4.0 | 0.00 | 0.00 | 0.00 | 85 | 1017.8 |
| 20260902074600 | 73 | 205 | 2.0 | 4.0 | 0.00 | 0.00 | 0.00 | 85 | 1017.7 |
| 20260902073051 | 73 | 165 | 0.0 | 4.0 | 0.00 | 0.00 | 0.00 | 84 | 1017.6 |
| 20260902071552 | 74 | 0 | 0.0 | 3.0 | 0.00 | 0.00 | 0.00 | 84 | 1017.7 |
| 20260902070056 | 74 | 173 | 0.0 | 2.0 | 0.00 | 0.00 | 0.00 | 82 | 1017.6 |
| 20260902064557 | 74 | 0 | 0.0 | 2.0 | 0.00 | 0.00 | 0.00 | 82 | 1017.7 |
| 20260902063054 | 75 | 0 | 0.0 | 3.0 | 0.00 | 0.00 | 0.00 | 80 | 1017.7 |
| 20260902061604 | 75 | 66 | 0.0 | 2.0 | 0.00 | 0.00 | 0.00 | 80 | 1017.6 |
| 20260902060049 | 76 | 66 | 0.0 | 3.0 | 0.00 | 0.00 | 0.00 | 79 | 1017.9 |
| 20260902054553 | 76 | 0 | 0.0 | 6.0 | 0.00 | 0.00 | 0.00 | 79 | 1018.1 |
| 20260902053114 | 76 | 0 | 0.0 | 2.0 | 0.00 | 0.00 | 0.00 | 79 | 1017.9 |
| 20260902051556 | 76 | 266 | 0.0 | 3.0 | 0.00 | 0.00 | 0.00 | 78 | 1018.2 |
| 20260902050104 | 76 | 265 | 1.0 | 2.0 | 0.00 | 0.00 | 0.00 | 78 | 1018.0 |
| 20260902044552 | 76 | 265 | 1.0 | 3.0 | 0.00 | 0.00 | 0.00 | 78 | 1018.0 |
| 20260902043106 | 77 | 202 | 0.0 | 2.0 | 0.00 | 0.00 | 0.00 | 76 | 1017.8 |
| 20260902041554 | 77 | 0 | 0.0 | 1.0 | 0.00 | 0.00 | 0.00 | 74 | 1017.7 |
| 20260902040053 | 78 | 0 | 0.0 | 1.0 | 0.00 | 0.00 | 0.00 | 73 | 1017.4 |
| 20260902034604 | 78 | 0 | 0.0 | 2.0 | 0.00 | 0.00 | 0.00 | 72 | 1017.3 |
| 20260902033100 | 79 | 0 | 0.0 | 2.0 | 0.00 | 0.00 | 0.00 | 70 | 1017.0 |
| 20260902031552 | 81 | 203 | 0.0 | 5.0 | 0.00 | 0.00 | 0.00 | 67 | 1016.8 |
| 20260902030110 | 81 | 225 | 3.0 | 10.0 | 0.00 | 0.00 | 0.00 | 66 | 1016.5 |
| 20260902024601 | 81 | 209 | 2.0 | 8.0 | 0.00 | 0.00 | 0.00 | 66 | 1016.4 |
| 20260902023058 | 80 | 157 | 1.0 | 4.0 | 0.00 | 0.00 | 0.00 | 68 | 1016.4 |
| 20260902021551 | 81 | 172 | 1.0 | 6.0 | 0.00 | 0.00 | 0.00 | 68 | 1016.5 |
| 20260902020056 | 82 | 209 | 0.0 | 2.0 | 0.00 | 0.00 | 0.00 | 67 | 1016.7 |
| 20260902014557 | 82 | 267 | 1.0 | 5.0 | 0.00 | 0.00 | 0.00 | 65 | 1016.7 |
| 20260902013056 | 81 | 167 | 2.0 | 5.0 | 0.00 | 0.00 | 0.00 | 67 | 1016.4 |
| 20260902011554 | 81 | 0 | 0.0 | 2.0 | 0.00 | 0.00 | 0.00 | 69 | 1016.4 |
| 20260902010109 | 82 | 215 | 0.0 | 3.0 | 0.00 | 0.00 | 0.00 | 67 | 1016.2 |
| 20260902004549 | 83 | 231 | 1.0 | 6.0 | 0.00 | 0.00 | 0.00 | 64 | 1015.8 |
| 20260902003100 | 85 | 186 | 3.0 | 10.0 | 0.00 | 0.00 | 0.00 | 62 | 1015.7 |
| 20260902001558 | 85 | 212 | 2.0 | 10.0 | 0.00 | 0.00 | 0.00 | 60 | 1015.6 |
| 20260902000052 | 85 | 151 | 8.0 | 15.0 | 0.00 | 0.00 | 0.00 | 60 | 1015.4 |
| 20260901234559 | 86 | 205 | 7.0 | 19.0 | 0.00 | 0.00 | 0.00 | 60 | 1015.3 |
| 20260901233058 | 86 | 144 | 8.0 | 18.0 | 0.00 | 0.00 | 0.00 | 59 | 1015.2 |
| 20260901231555 | 87 | 236 | 8.0 | 19.0 | 0.00 | 0.00 | 0.00 | 59 | 1015.2 |
| 20260901230051 | 87 | 174 | 7.0 | 13.0 | 0.00 | 0.00 | 0.00 | 58 | 1015.2 |
| 20260901224554 | 88 | 148 | 7.0 | 18.0 | 0.00 | 0.00 | 0.00 | 57 | 1015.4 |
| 20260901223056 | 89 | 232 | 7.0 | 23.0 | 0.00 | 0.00 | 0.00 | 56 | 1015.1 |
| 20260901221559 | 89 | 158 | 10.0 | 24.0 | 0.00 | 0.00 | 0.00 | 55 | 1015.0 |
| 20260901214602 | 91 | 147 | 7.0 | 14.0 | 0.00 | 0.00 | 0.00 | 55 | 1015.1 |
| 20260901213102 | 91 | 236 | 5.0 | 16.0 | 0.00 | 0.00 | 0.00 | 55 | 1015.0 |
| 20260901211550 | 92 | 164 | 4.0 | 10.0 | 0.00 | 0.00 | 0.00 | 55 | 1014.7 |
| 20260901210109 | 92 | 156 | 5.0 | 14.0 | 0.00 | 0.00 | 0.00 | 53 | 1014.7 |
| 20260901204555 | 92 | 209 | 8.0 | 16.0 | 0.00 | 0.00 | 0.00 | 53 | 1014.8 |
| 20260901203052 | 92 | 163 | 6.0 | 14.0 | 0.00 | 0.00 | 0.00 | 54 | 1014.8 |
| 20260901201548 | 92 | 103 | 10.0 | 20.0 | 0.00 | 0.00 | 0.00 | 54 | 1014.7 |
| 20260901200111 | 92 | 187 | 12.0 | 19.0 | 0.00 | 0.00 | 0.00 | 54 | 1014.8 |
| 20260901194558 | 92 | 185 | 9.0 | 19.0 | 0.00 | 0.00 | 0.00 | 53 | 1014.8 |
| 20260901193054 | 93 | 180 | 9.0 | 18.0 | 0.00 | 0.00 | 0.00 | 51 | 1015.0 |
| 20260901191553 | 91 | 140 | 9.0 | 23.0 | 0.00 | 0.00 | 0.00 | 54 | 1015.4 |
| 20260901190053 | 91 | 225 | 11.0 | 21.0 | 0.00 | 0.00 | 0.00 | 55 | 1015.6 |
| 20260901184605 | 92 | 119 | 10.0 | 18.0 | 0.00 | 0.00 | 0.00 | 55 | 1015.8 |
| 20260901183104 | 93 | 175 | 7.0 | 20.0 | 0.00 | 0.00 | 0.00 | 53 | 1015.8 |
| 20260901181551 | 92 | 182 | 11.0 | 26.0 | 0.00 | 0.00 | 0.00 | 54 | 1015.7 |
| 20260901180104 | 93 | 140 | 6.0 | 15.0 | 0.00 | 0.00 | 0.00 | 51 | 1016.1 |
| 20260901174556 | 91 | 217 | 9.0 | 25.0 | 0.00 | 0.00 | 0.00 | 55 | 1016.0 |
| 20260901173058 | 91 | 145 | 14.0 | 22.0 | 0.00 | 0.00 | 0.00 | 55 | 1016.0 |
| 20260901171559 | 91 | 217 | 6.0 | 21.0 | 0.00 | 0.00 | 0.00 | 54 | 1015.8 |
| 20260901170051 | 91 | 192 | 8.0 | 18.0 | 0.00 | 0.00 | 0.00 | 57 | 1016.1 |
| 20260901164559 | 91 | 259 | 5.0 | 11.0 | 0.00 | 0.00 | 0.00 | 60 | 1016.1 |
| 20260901163059 | 90 | 150 | 6.0 | 12.0 | 0.00 | 0.00 | 0.00 | 59 | 1016.3 |
| 20260901161559 | 90 | 225 | 7.0 | 18.0 | 0.00 | 0.00 | 0.00 | 59 | 1016.5 |
| 20260901160054 | 88 | 190 | 4.0 | 10.0 | 0.00 | 0.00 | 0.00 | 65 | 1016.4 |
| 20260901154612 | 87 | 246 | 3.0 | 8.0 | 0.00 | 0.00 | 0.00 | 66 | 1016.7 |
| 20260901153107 | 86 | 217 | 7.0 | 15.0 | 0.00 | 0.00 | 0.00 | 65 | 1016.9 |
| 20260901151555 | 86 | 128 | 5.0 | 18.0 | 0.00 | 0.00 | 0.00 | 65 | 1017.1 |
| 20260901144548 | 85 | 180 | 5.0 | 12.0 | 0.00 | 0.00 | 0.00 | 68 | 1017.0 |
| 20260901143100 | 84 | 124 | 4.0 | 12.0 | 0.00 | 0.00 | 0.00 | 70 | 1017.1 |
| 20260901141605 | 84 | 230 | 8.0 | 17.0 | 0.00 | 0.00 | 0.00 | 68 | 1017.2 |
| 20260901140100 | 84 | 281 | 4.0 | 15.0 | 0.00 | 0.00 | 0.00 | 69 | 1017.2 |
| 20260901134551 | 82 | 230 | 4.0 | 13.0 | 0.00 | 0.00 | 0.00 | 74 | 1017.4 |
| 20260901133101 | 78 | 0 | 1.0 | 3.0 | 0.00 | 0.00 | 0.00 | 83 | 1017.6 |
| 20260901131559 | 75 | 0 | 2.0 | 4.0 | 0.00 | 0.00 | 0.00 | 86 | 1017.7 |
| 20260901130105 | 75 | 58 | 1.0 | 4.0 | 0.00 | 0.00 | 0.00 | 87 | 1017.6 |